Hourly Data Report for July 21, 2021

ALGONQUIN PARK EAST GATE
ONTARIO
Current Station Operator: ECCC - MSC

45°32'00.000" N
78°16'00.000" W
397.00 m
6080192
71581
TNK

Download Data

Hourly Data (July 2021)
Hourly Data Report for July 21, 2021
TIME
LST
Temp Definition
°C
Dew Point Definition
°C
Rel Hum Definition
%
Precip. Amount Definition
mm

Wind Dir Definition
10's deg

Wind Spd Definition
km/h
Visibility Definition
km
Stn Press Definition
kPa
Hmdx Definition


Wind Chill Definition


Weather Definition


00:00 10.1 9.8 98 0.0   0   96.86     LegendNANA
01:00 9.4 9.1 98 0.0   0   96.87     LegendNANA
02:00 9.4 9.2 98 0.0 12 2   96.87     LegendNANA
03:00 9.6 9.4 99 0.0 9 2   96.85     LegendNANA
04:00 8.9 8.7 99 0.0 0 1   96.88     LegendNANA
05:00 8.6 8.4 99 0.0 10 2   96.91     LegendNANA
06:00 10.0 9.6 97 0.0 36 2   96.95     LegendNANA
07:00 12.6 10.7 88 0.0 1 3   96.98     LegendNANA
08:00 15.1 10.9 76 0.0 1 6   97.03     LegendNANA
09:00 17.3 11.7 70 0.0 1 6   97.05     LegendNANA
10:00 19.1 11.2 60 0.0 32 6   97.09     LegendNANA
11:00 20.5 10.2 52 0.0 2 6   97.10     LegendNANA
12:00 20.2 9.0 48 0.0 1 6   97.11     LegendNANA
13:00 19.6 9.8 53 0.0 5 5   97.10     LegendNANA
14:00 20.0 9.4 50 0.0 2 6   97.07     LegendNANA
15:00 20.9 9.6 48 0.0 5 4   97.06     LegendNANA
16:00 20.1 9.9 52 0.0 36 5   97.08     LegendNANA
17:00 20.8 9.1 47 0.0 36 6   97.08     LegendNANA
18:00 20.2 9.3 49 0.0 35 4   97.10     LegendNANA
19:00 17.8 10.3 62 0.0 33 3   97.14     LegendNANA
20:00 14.3 11.2 82 0.0   0   97.17     LegendNANA
21:00 12.3 10.8 91 0.0   0   97.24     LegendNANA
22:00 11.1 10.3 94 0.0   0   97.26     LegendNANA
23:00 10.0 9.3 95 0.0   0   97.28     LegendNANA

Notes on Data Quality.

Legend

  • E = Estimated
  • M = Missing
  • NA = Not Available*
  • [empty] = Indicates an unobserved value
Date modified: